Location: Laura�t
(43.9341°N, 0.2497°E)
Time: 00:06:35
(UTC+00:00)

Cosmos 2333 Rocket - Pass Details

Date: 03 March 2021
Orbit: 837 x 864 km, 70.8° (Epoch: 17 April)

Event Time Altitude Azimuth Distance (km) Brightness Sun altitude
Rises 20:29:20 0° 219° (SW) 3,388 5.6 -29.0°
Reaches altitude 10° 20:31:50 10° 224° (SW) 2,460 4.8 -29.4°
Maximum altitude 20:37:19 51° 300° (WNW) 1,057 2.9 -30.4°
Drops below altitude 10° 20:42:54 10° 17° (NNE) 2,493 4.7 -31.3°
Sets 20:45:27 0° 22° (NNE) 3,437 5.4 -31.7°
